| time (UTC) | temp F | wind direction | speed MPH | gust MPH | rain 1hr in | rain 24hr in | rain mn in | humidity % | barometer mb |
| 20260509021517 | 66 | 48 | 12.0 | 19.0 | 0.00 | 0.00 | 0.00 | 30 | 1006.5 |
| 20260509020017 | 67 | 57 | 13.0 | 22.0 | 0.00 | 0.00 | 0.00 | 29 | 1006.3 |
| 20260509014515 | 68 | 24 | 10.0 | 22.0 | 0.00 | 0.00 | 0.00 | 26 | 1005.9 |
| 20260509013019 | 69 | 360 | 15.0 | 21.0 | 0.00 | 0.00 | 0.00 | 24 | 1005.8 |
| 20260509011515 | 69 | 5 | 9.0 | 16.0 | 0.00 | 0.00 | 0.00 | 25 | 1005.7 |
| 20260509010019 | 70 | 360 | 13.0 | 20.0 | 0.00 | 0.00 | 0.00 | 25 | 1005.6 |
| 20260509004513 | 70 | 15 | 16.0 | 25.0 | 0.00 | 0.00 | 0.00 | 23 | 1005.5 |
| 20260509003020 | 71 | 345 | 17.0 | 25.0 | 0.00 | 0.00 | 0.00 | 22 | 1005.4 |
| 20260509001513 | 74 | 350 | 20.0 | 30.0 | 0.00 | 0.00 | 0.00 | 20 | 1005.3 |
| 20260509000012 | 74 | 360 | 16.0 | 27.0 | 0.00 | 0.00 | 0.00 | 21 | 1005.2 |
| 20260508234511 | 76 | 355 | 16.0 | 25.0 | 0.00 | 0.00 | 0.00 | 19 | 1005.0 |
| 20260508233011 | 75 | 355 | 17.0 | 24.0 | 0.00 | 0.00 | 0.00 | 18 | 1004.7 |
| 20260508231510 | 74 | 322 | 18.0 | 25.0 | 0.00 | 0.00 | 0.00 | 20 | 1004.9 |
| 20260508230010 | 76 | 344 | 15.0 | 25.0 | 0.00 | 0.00 | 0.00 | 18 | 1004.9 |
| 20260508224516 | 77 | 327 | 15.0 | 28.0 | 0.00 | 0.00 | 0.00 | 19 | 1004.7 |
| 20260508223022 | 74 | 325 | 16.0 | 29.0 | 0.00 | 0.00 | 0.00 | 21 | 1004.9 |
| 20260508221507 | 76 | 342 | 18.0 | 27.0 | 0.00 | 0.00 | 0.00 | 21 | 1004.8 |
| 20260508220006 | 76 | 350 | 15.0 | 26.0 | 0.00 | 0.00 | 0.00 | 23 | 1004.8 |
| 20260508214504 | 76 | 343 | 11.0 | 27.0 | 0.00 | 0.00 | 0.00 | 24 | 1004.9 |
| 20260508213003 | 75 | 321 | 12.0 | 24.0 | 0.00 | 0.00 | 0.00 | 26 | 1004.9 |
| 20260508211503 | 74 | 294 | 13.0 | 20.0 | 0.00 | 0.00 | 0.00 | 28 | 1004.8 |
| 20260508210002 | 76 | 291 | 9.0 | 21.0 | 0.00 | 0.00 | 0.00 | 26 | 1004.9 |
| 20260508204602 | 78 | 337 | 13.0 | 22.0 | 0.00 | 0.00 | 0.00 | 27 | 1004.9 |
| 20260508203102 | 76 | 336 | 5.0 | 13.0 | 0.00 | 0.00 | 0.00 | 26 | 1004.9 |
| 20260508201600 | 76 | 304 | 8.0 | 15.0 | 0.00 | 0.00 | 0.00 | 27 | 1005.0 |
| 20260508200056 | 76 | 318 | 7.0 | 20.0 | 0.00 | 0.00 | 0.00 | 28 | 1005.1 |
| 20260508194609 | 74 | 327 | 7.0 | 13.0 | 0.00 | 0.00 | 0.00 | 27 | 1005.2 |
| 20260508193105 | 75 | 338 | 7.0 | 13.0 | 0.00 | 0.00 | 0.00 | 27 | 1005.4 |
| 20260508191549 | 73 | 306 | 7.0 | 12.0 | 0.00 | 0.00 | 0.00 | 30 | 1005.6 |
| 20260508190047 | 73 | 317 | 5.0 | 13.0 | 0.00 | 0.00 | 0.00 | 32 | 1005.8 |
| 20260508184553 | 72 | 302 | 2.0 | 11.0 | 0.00 | 0.00 | 0.00 | 35 | 1006.0 |
| 20260508183041 | 73 | 274 | 4.0 | 12.0 | 0.00 | 0.00 | 0.00 | 34 | 1006.1 |
| 20260508181542 | 72 | 306 | 7.0 | 16.0 | 0.00 | 0.00 | 0.00 | 36 | 1006.4 |
| 20260508180039 | 70 | 272 | 6.0 | 15.0 | 0.00 | 0.00 | 0.00 | 35 | 1006.5 |
| 20260508174534 | 69 | 205 | 5.0 | 13.0 | 0.00 | 0.00 | 0.00 | 38 | 1006.7 |
| 20260508173027 | 69 | 219 | 5.0 | 14.0 | 0.00 | 0.00 | 0.00 | 40 | 1007.0 |
| 20260508171528 | 69 | 243 | 10.0 | 14.0 | 0.00 | 0.00 | 0.00 | 38 | 1006.9 |
| 20260508170021 | 67 | 232 | 9.0 | 16.0 | 0.00 | 0.00 | 0.00 | 39 | 1007.3 |
| 20260508164518 | 66 | 250 | 11.0 | 16.0 | 0.00 | 0.00 | 0.00 | 40 | 1007.4 |
| 20260508163013 | 65 | 243 | 8.0 | 16.0 | 0.00 | 0.00 | 0.00 | 43 | 1007.7 |
| 20260508161509 | 64 | 253 | 9.0 | 17.0 | 0.00 | 0.00 | 0.00 | 44 | 1007.7 |
| 20260508160012 | 64 | 227 | 10.0 | 16.0 | 0.00 | 0.00 | 0.00 | 44 | 1007.9 |
| 20260508154504 | 63 | 217 | 10.0 | 15.0 | 0.00 | 0.00 | 0.00 | 48 | 1008.1 |
| 20260508153058 | 61 | 233 | 8.0 | 13.0 | 0.00 | 0.00 | 0.00 | 51 | 1008.2 |
| 20260508151555 | 60 | 207 | 11.0 | 16.0 | 0.00 | 0.00 | 0.00 | 53 | 1008.4 |
| 20260508150051 | 59 | 245 | 12.0 | 18.0 | 0.00 | 0.00 | 0.00 | 53 | 1008.4 |
| 20260508144548 | 58 | 235 | 11.0 | 17.0 | 0.00 | 0.00 | 0.00 | 57 | 1008.5 |
| 20260508143056 | 56 | 227 | 8.0 | 14.0 | 0.00 | 0.00 | 0.00 | 61 | 1008.7 |
| 20260508141550 | 53 | 220 | 7.0 | 10.0 | 0.00 | 0.00 | 0.00 | 65 | 1008.9 |
| 20260508140036 | 52 | 225 | 5.0 | 9.0 | 0.00 | 0.00 | 0.00 | 71 | 1008.9 |
| 20260508134534 | 50 | 231 | 7.0 | 9.0 | 0.00 | 0.00 | 0.00 | 74 | 1009.0 |
| 20260508133027 | 49 | 231 | 4.0 | 7.0 | 0.00 | 0.00 | 0.00 | 72 | 1009.0 |
| 20260508131522 | 48 | 227 | 6.0 | 8.0 | 0.00 | 0.00 | 0.00 | 72 | 1009.1 |
| 20260508130018 | 46 | 223 | 3.0 | 7.0 | 0.00 | 0.00 | 0.00 | 74 | 1009.0 |
| 20260508124513 | 44 | 222 | 4.0 | 7.0 | 0.00 | 0.00 | 0.00 | 75 | 1009.1 |
| 20260508123012 | 42 | 220 | 4.0 | 7.0 | 0.00 | 0.00 | 0.00 | 76 | 1009.1 |
| 20260508121516 | 41 | 221 | 4.0 | 6.0 | 0.00 | 0.00 | 0.00 | 78 | 1009.0 |
| 20260508120004 | 40 | 221 | 5.0 | 8.0 | 0.00 | 0.00 | 0.00 | 78 | 1009.1 |
| 20260508114502 | 40 | 216 | 6.0 | 8.0 | 0.00 | 0.00 | 0.00 | 73 | 1009.3 |
| 20260508113002 | 40 | 213 | 6.0 | 7.0 | 0.00 | 0.00 | 0.00 | 73 | 1009.2 |
| 20260508111501 | 41 | 215 | 5.0 | 7.0 | 0.00 | 0.00 | 0.00 | 76 | 1009.2 |
| 20260508110104 | 41 | 217 | 6.0 | 8.0 | 0.00 | 0.00 | 0.00 | 75 | 1009.2 |
| 20260508110001 | 41 | 219 | 6.0 | 8.0 | 0.00 | 0.00 | 0.00 | 75 | 1009.3 |
| 20260508104501 | 41 | 222 | 5.0 | 8.0 | 0.00 | 0.00 | 0.00 | 77 | 1009.4 |
| 20260508103119 | 41 | 223 | 5.0 | 7.0 | 0.00 | 0.00 | 0.00 | 75 | 1009.3 |
| 20260508101559 | 41 | 224 | 6.0 | 9.0 | 0.00 | 0.00 | 0.00 | 78 | 1009.3 |
| 20260508100058 | 39 | 226 | 5.0 | 8.0 | 0.00 | 0.00 | 0.00 | 78 | 1009.3 |
| 20260508094609 | 39 | 236 | 4.0 | 7.0 | 0.00 | 0.00 | 0.00 | 78 | 1009.2 |
| 20260508093056 | 39 | 238 | 5.0 | 8.0 | 0.00 | 0.00 | 0.00 | 76 | 1009.3 |
| 20260508091601 | 39 | 234 | 4.0 | 6.0 | 0.00 | 0.00 | 0.00 | 74 | 1009.2 |
| 20260508090054 | 39 | 233 | 4.0 | 7.0 | 0.00 | 0.00 | 0.00 | 72 | 1009.3 |
| 20260508084553 | 40 | 223 | 2.0 | 5.0 | 0.00 | 0.00 | 0.00 | 69 | 1009.3 |
| 20260508083131 | 41 | 223 | 3.0 | 7.0 | 0.00 | 0.00 | 0.00 | 67 | 1009.3 |
| 20260508081555 | 42 | 227 | 6.0 | 12.0 | 0.00 | 0.00 | 0.00 | 69 | 1009.4 |
| 20260508080055 | 42 | 236 | 9.0 | 13.0 | 0.00 | 0.00 | 0.00 | 68 | 1009.3 |
| 20260508074544 | 38 | 339 | 5.0 | 6.0 | 0.00 | 0.00 | 0.00 | 65 | 1009.2 |
| 20260508073041 | 39 | 346 | 1.0 | 4.0 | 0.00 | 0.00 | 0.00 | 63 | 1009.2 |
| 20260508071543 | 39 | 347 | 2.0 | 4.0 | 0.00 | 0.00 | 0.00 | 62 | 1009.2 |
| 20260508070038 | 39 | 351 | 3.0 | 5.0 | 0.00 | 0.00 | 0.00 | 67 | 1009.2 |
| 20260508064548 | 40 | 355 | 2.0 | 4.0 | 0.00 | 0.00 | 0.00 | 62 | 1009.1 |
| 20260508063037 | 40 | 355 | 3.0 | 4.0 | 0.00 | 0.00 | 0.00 | 62 | 1009.2 |
| 20260508061532 | 40 | 355 | 3.0 | 5.0 | 0.00 | 0.00 | 0.00 | 62 | 1009.3 |
| 20260508060026 | 41 | 355 | 2.0 | 3.0 | 0.00 | 0.00 | 0.00 | 62 | 1009.2 |
| 20260508054524 | 41 | 355 | 2.0 | 4.0 | 0.00 | 0.00 | 0.00 | 62 | 1009.1 |
| 20260508053022 | 42 | 355 | 0.0 | 2.0 | 0.00 | 0.00 | 0.00 | 59 | 1009.0 |
| 20260508051521 | 42 | 355 | 2.0 | 4.0 | 0.00 | 0.00 | 0.00 | 55 | 1009.0 |
| 20260508050021 | 43 | 355 | 3.0 | 5.0 | 0.00 | 0.00 | 0.00 | 58 | 1008.8 |
| 20260508044514 | 43 | 355 | 2.0 | 4.0 | 0.00 | 0.00 | 0.00 | 52 | 1008.8 |
| 20260508043010 | 45 | 355 | 4.0 | 5.0 | 0.00 | 0.00 | 0.00 | 52 | 1008.8 |
| 20260508041513 | 47 | 355 | 2.0 | 4.0 | 0.00 | 0.00 | 0.00 | 50 | 1008.5 |
| 20260508040007 | 51 | 355 | 0.0 | 2.0 | 0.00 | 0.00 | 0.00 | 51 | 1008.4 |
| 20260508034509 | 52 | 355 | 0.0 | 2.0 | 0.00 | 0.00 | 0.00 | 49 | 1008.3 |
| 20260508033006 | 53 | 355 | 2.0 | 4.0 | 0.00 | 0.00 | 0.00 | 48 | 1008.2 |
| 20260508031505 | 55 | 355 | 1.0 | 4.0 | 0.00 | 0.00 | 0.00 | 44 | 1007.9 |
| 20260508030007 | 58 | 355 | 4.0 | 6.0 | 0.00 | 0.00 | 0.00 | 39 | 1007.8 |
| 20260508024504 | 60 | 355 | 4.0 | 6.0 | 0.00 | 0.00 | 0.00 | 36 | 1007.7 |
| 20260508023004 | 63 | 355 | 4.0 | 6.0 | 0.00 | 0.00 | 0.00 | 34 | 1007.3 |